[[{"header":{"parameterUnit":"m.s-1","parameterCategory":1,"la1":30.2991,"la2":30.254,"lo1":-89.0895,"lo2":-89.0444,"dy":0.0017,"dx":0.0017,"nx":28,"ny":28,"refTime":"2024-03-16T21:00:00:Z","depth":0,"parameterNumber":2,"parameterNumberName":"U-component_of_WINDS"},"data":[0,0,0,0,0,0,0,0,0,0,0,0,0,0,0,0,0,0,0,0,0,0,0,0,0,0,0,0,0,0,0,0,0,0,0,0,0,0,0,0,0,0,0,0,0,0,0,0,0,0,0,0,0,0,0,0,0,0,0.1571,0.1572,0,0.1678,0.1679,0.168,0.1744,0.1744,0.1745,0.1745,0.1856,0.1859,0.1862,0,0,0,0,0,0,0,0,0,0,0,0,0,0.1422,0.1424,0.1571,0.1573,0.1574,0.1678,0.1679,0.1681,0.1744,0.1744,0.1745,0.1745,0.1855,0.1859,0.1862,0,0,0,0,0,0,0,0,0,0,0,0,0,0.1504,0.1425,0.1571,0.1618,0.1623,0.1678,0.1679,0.1681,0.1744,0.1744,0.1745,0.1745,0.1854,0.1858,0.1862,0.1879,0,0,0.1875,0.1876,0,0,0,0,0,0,0,0,0.1499,0.1509,0.161,0.1615,0.1621,0.1698,0.1668,0.1748,0.1744,0.1698,0.1745,0.1745,0.1803,0.1812,0.1831,0.1884,0.1889,0.1875,0.1877,0.1879,0.188,0,0,0,0,0,0,0,0.1493,0.1505,0.1614,0.1611,0.1618,0.1634,0.1646,0.1683,0.1747,0.1702,0.1707,0.1719,0.1807,0.1827,0.1834,0.189,0.1875,0.1878,0.1881,0.1883,0.196,0.196,0,0,0,0,0,0,0.148,0.15,0.161,0.1617,0.156,0.1636,0.1649,0.1673,0.1747,0.1759,0.1718,0.1721,0.182,0.1829,0.1838,0.1861,0.1879,0.1883,0.1885,0.196,0.196,0.196,0,0,0,0,0,0,0.1476,0.1489,0.1606,0.156,0.1576,0.1638,0.1664,0.1675,0.1695,0.1759,0.1771,0.1727,0.182,0.1832,0.1867,0.1866,0.1885,0.1888,0.1961,0.196,0.196,0.1907,0,0,0,0,0,0,0.1472,0.1488,0.1495,0.1559,0.1578,0.1633,0.1664,0.1677,0.1702,0.1707,0.1771,0.1782,0.1822,0.1861,0.1871,0.1871,0.1892,0.1961,0.1961,0.196,0.1909,0.1905,0.1901,0,0,0,0,0,0.1466,0.1477,0.1495,0.1508,0.1588,0.1633,0.1644,0.1689,0.1701,0.1709,0.1749,0.178,0.1864,0.1864,0.1876,0.1878,0.1962,0.1961,0.196,0.1911,0.1906,0.1901,0,0,0,0,0,0,0.1412,0.1486,0.1507,0.1538,0.1579,0.1644,0.1655,0.1682,0.1721,0.1724,0.1779,0.1793,0.1822,0.1854,0.1853,0.1896,0.1916,0.1918,0.1875,0.187,0.1866,0.1858,0.1895,0,0,0,0,0,0.1403,0.1433,0.1497,0.1518,0.1537,0.1592,0.1614,0.1645,0.1689,0.1707,0.175,0.1792,0.1828,0.1851,0.1888,0.1914,0.1928,0.1921,0.1916,0.1913,0.1913,0.1927,0.1924,0.1957,0.1957,0.1957,0,0,0.1386,0.143,0.1446,0.1508,0.1543,0.1573,0.1606,0.1637,0.1659,0.1712,0.1747,0.178,0.1831,0.186,0.1876,0.1888,0.1907,0.1911,0.1908,0.1911,0.1926,0.1923,0.192,0.1956,0.1956,0.1956,0,0,0.137,0.1407,0.1428,0.1462,0.1513,0.1549,0.1554,0.1614,0.1638,0.1674,0.1713,0.174,0.1802,0.1835,0.186,0.1853,0.1882,0.1864,0.1842,0.1855,0.1853,0.1851,0.1847,0.1845,0.1865,0.1864,0.1864,0,0.1343,0.1389,0.1435,0.1463,0.1488,0.1535,0.1556,0.1587,0.1648,0.1665,0.1677,0.1752,0.179,0.1827,0.1825,0.1845,0.1851,0.1857,0.1849,0.1847,0.1846,0.1843,0.1842,0.1862,0.1862,0.1862,0.1863,0,0.1351,0.1382,0.1393,0.1449,0.1476,0.15,0.155,0.1571,0.1599,0.1634,0.1668,0.1715,0.176,0.1772,0.18,0.1812,0.1818,0.1838,0.186,0.184,0.1838,0.1837,0.1858,0.1859,0.186,0.186,0,0,0.1306,0.1385,0.1388,0.1413,0.1473,0.1498,0.1523,0.1567,0.1583,0.1623,0.1645,0.1694,0.1713,0.1741,0.1774,0.1785,0.1774,0.1805,0.1807,0.1796,0.1788,0.1772,0.1769,0.1793,0.1793,0.1793,0.1784,0,0.1298,0.1345,0.1387,0.1419,0.1447,0.1491,0.1513,0.1551,0.1583,0.1612,0.1648,0.1681,0.1704,0.1721,0.1734,0.1773,0.1773,0.1774,0.1814,0.1815,0.1799,0.1769,0.1752,0.1741,0.1783,0.1783,0.1783,0,0.1295,0.1331,0.1366,0.1419,0.1433,0.1452,0.1494,0.1521,0.1564,0.1587,0.1617,0.165,0.1678,0.1695,0.1734,0.1733,0.1752,0.1773,0.1774,0.1779,0.1797,0.1772,0.1738,0.1736,0.1783,0.1783,0.1783,0,0.1256,0.1314,0.1341,0.1362,0.1426,0.1437,0.1465,0.1509,0.1531,0.1568,0.1583,0.1622,0.1644,0.1674,0.1716,0.1725,0.175,0.1771,0.1768,0.1767,0.1772,0.1771,0.1739,0.1785,0.1785,0.1785,0.1785,0,0.1243,0.1262,0.1324,0.1341,0.1363,0.141,0.1431,0.1462,0.15,0.1523,0.1564,0.1585,0.164,0.1667,0.1701,0.1726,0.1736,0.1755,0.1763,0.1751,0.1748,0.1763,0.1765,0.1784,0.1784,0.1785,0.1785,0,0.1204,0.1247,0.1279,0.1336,0.1351,0.1364,0.1413,0.143,0.1463,0.1492,0.1501,0.1554,0.1588,0.1633,0.1682,0.1704,0.1725,0.1739,0.171,0.1715,0.1709,0.1708,0.1685,0.1684,0.173,0.173,0.173,0,0.1192,0.1207,0.1265,0.1283,0.1308,0.1337,0.1359,0.1405,0.1427,0.1476,0.1487,0.1524,0.1555,0.1607,0.165,0.1686,0.1701,0.169,0.1707,0.1693,0.1699,0.1697,0.1698,0.1686,0.1685,0.1685,0.1684,0,0.1166,0.1186,0.1216,0.1253,0.1279,0.131,0.1344,0.1356,0.1409,0.1431,0.1466,0.149,0.1538,0.1573,0.1615,0.1643,0.1672,0.1678,0.168,0.1667,0.1648,0.1657,0.1698,0.1679,0.168,0.168,0.168,0.168,0.114,0.1154,0.1196,0.1228,0.1258,0.1288,0.1306,0.134,0.1369,0.1411,0.1437,0.1469,0.151,0.1569,0.1595,0.1621,0.1633,0.1635,0.1635,0.1634,0.1629,0.1644,0.1629,0.1629,0.1629,0.1629,0.163,0,0.1115,0.1143,0.1172,0.1217,0.1241,0.1265,0.1303,0.1322,0.1349,0.1385,0.1414,0.1452,0.1486,0.1529,0.1566,0.1578,0.1592,0.1586,0.1585,0.1591,0.1618,0.1612,0.1574,0.1574,0.1574,0.1574,0.1574,0.1574,0.1105,0.113,0.1154,0.1194,0.1222,0.1253,0.1272,0.1299,0.1328,0.1368,0.1395,0.1423,0.1461,0.15,0.1532,0.1544,0.1555,0.1544,0.156,0.1584,0.1589,0.1594,0.1589,0.1546,0.1546,0.1531,0.1531,0.1531]},{"header":{"parameterUnit":"m.s-1","parameterCategory":1,"la1":30.2991,"la2":30.254,"lo1":-89.0895,"lo2":-89.0444,"dy":0.0017,"dx":0.0017,"nx":28,"ny":28,"refTime":"2024-03-16T21:00:00:Z","depth":0,"parameterNumber":3,"parameterNumberName":"V-component_of_WINDS"},"data":[0,0,0,0,0,0,0,0,0,0,0,0,0,0,0,0,0,0,0,0,0,0,0,0,0,0,0,0,0,0,0,0,0,0,0,0,0,0,0,0,0,0,0,0,0,0,0,0,0,0,0,0,0,0,0,0,0,0,2.8542,2.8542,0,2.8532,2.8532,2.8532,2.8524,2.8524,2.8524,2.8524,2.8513,2.8513,2.8513,0,0,0,0,0,0,0,0,0,0,0,0,0,2.8553,2.8553,2.8542,2.8542,2.8542,2.8532,2.8532,2.8532,2.8524,2.8524,2.8524,2.8524,2.8513,2.8513,2.8513,0,0,0,0,0,0,0,0,0,0,0,0,0,2.8547,2.8553,2.8542,2.8537,2.8536,2.8532,2.8532,2.8532,2.8524,2.8524,2.8524,2.8524,2.8513,2.8513,2.8513,2.8513,0,0,2.8512,2.8511,0,0,0,0,0,0,0,0,2.8547,2.8546,2.8538,2.8537,2.8537,2.8529,2.8532,2.8525,2.8524,2.8529,2.8524,2.8524,2.8519,2.8518,2.8516,2.8512,2.8512,2.8512,2.8511,2.8511,2.8511,0,0,0,0,0,0,0,2.8547,2.8547,2.8538,2.8538,2.8537,2.8535,2.8534,2.8531,2.8524,2.8529,2.8528,2.8527,2.8518,2.8516,2.8516,2.8511,2.8512,2.8511,2.8511,2.8511,2.8506,2.8506,0,0,0,0,0,0,2.8549,2.8547,2.8538,2.8538,2.8542,2.8535,2.8533,2.8532,2.8524,2.8523,2.8527,2.8527,2.8517,2.8516,2.8515,2.8515,2.8511,2.8511,2.8511,2.8506,2.8506,2.8506,0,0,0,0,0,0,2.8549,2.8548,2.8539,2.8542,2.8541,2.8535,2.8533,2.8532,2.853,2.8523,2.8522,2.8526,2.8517,2.8516,2.8513,2.8514,2.8511,2.851,2.8506,2.8506,2.8506,2.8513,0,0,0,0,0,0,2.855,2.8548,2.8548,2.8542,2.8541,2.8537,2.8533,2.8532,2.8529,2.8529,2.8522,2.8521,2.8517,2.8514,2.8513,2.8514,2.851,2.8506,2.8506,2.8506,2.8513,2.8513,2.8514,0,0,0,0,0,2.855,2.8551,2.8548,2.8548,2.8541,2.8537,2.8536,2.8531,2.853,2.8529,2.8525,2.8521,2.8514,2.8514,2.8513,2.8513,2.8506,2.8506,2.8506,2.8512,2.8513,2.8514,0,0,0,0,0,0,2.8557,2.855,2.8547,2.8546,2.8542,2.8536,2.8536,2.8533,2.8529,2.8529,2.8522,2.8521,2.8519,2.8516,2.8515,2.8512,2.851,2.851,2.8515,2.8515,2.8516,2.8517,2.851,0,0,0,0,0,2.8558,2.8556,2.855,2.8549,2.8548,2.8542,2.854,2.8537,2.8533,2.8531,2.8527,2.8522,2.8519,2.8517,2.8514,2.8512,2.8511,2.8512,2.8513,2.8513,2.8513,2.8512,2.8512,2.8507,2.8507,2.8507,0,0,2.8561,2.8557,2.8556,2.8551,2.8547,2.8545,2.8541,2.8539,2.8537,2.8531,2.8528,2.8525,2.8519,2.8517,2.8516,2.8515,2.8514,2.8514,2.8514,2.8514,2.8512,2.8513,2.8513,2.8507,2.8507,2.8507,0,0,2.8565,2.8562,2.8561,2.8557,2.8553,2.8549,2.8549,2.8543,2.854,2.8538,2.8533,2.8531,2.8525,2.8522,2.8519,2.8522,2.8518,2.8521,2.8524,2.8523,2.8523,2.8523,2.8524,2.8524,2.8521,2.8521,2.8521,0,2.8568,2.8565,2.856,2.8559,2.8556,2.8551,2.855,2.8547,2.8541,2.854,2.8538,2.8531,2.8527,2.8524,2.8525,2.8523,2.8522,2.8521,2.8523,2.8524,2.8524,2.8524,2.8525,2.8521,2.8521,2.8521,2.8521,0,2.857,2.8568,2.8568,2.8563,2.856,2.8559,2.8554,2.8552,2.8549,2.8545,2.8542,2.8537,2.8533,2.8532,2.8529,2.8528,2.8527,2.8525,2.8522,2.8525,2.8525,2.8525,2.8522,2.8521,2.8521,2.8521,0,0,2.8578,2.857,2.857,2.8568,2.8562,2.856,2.8558,2.8554,2.8552,2.8549,2.8547,2.8542,2.854,2.8537,2.8533,2.8532,2.8534,2.8529,2.8529,2.853,2.8533,2.8535,2.8535,2.8532,2.8532,2.8532,2.8533,0,2.858,2.8577,2.8573,2.8571,2.8568,2.8563,2.8562,2.8558,2.8554,2.8551,2.8547,2.8544,2.8541,2.854,2.8538,2.8534,2.8534,2.8534,2.8529,2.8529,2.853,2.8535,2.8537,2.8539,2.8533,2.8533,2.8533,0,2.8583,2.858,2.8578,2.8572,2.8571,2.8569,2.8565,2.8563,2.8558,2.8556,2.8553,2.8549,2.8546,2.8544,2.854,2.8539,2.8537,2.8535,2.8535,2.8534,2.8531,2.8534,2.8539,2.8539,2.8533,2.8533,2.8533,0,2.8588,2.8583,2.8581,2.8579,2.8573,2.8572,2.8569,2.8565,2.8562,2.8559,2.8557,2.8553,2.8551,2.8547,2.8542,2.8541,2.8539,2.8536,2.8536,2.8536,2.8536,2.8536,2.854,2.8535,2.8535,2.8535,2.8535,0,2.8592,2.859,2.8584,2.8582,2.8581,2.8576,2.8574,2.8571,2.8567,2.8565,2.856,2.8558,2.8551,2.8548,2.8544,2.8541,2.854,2.8538,2.8537,2.8538,2.8539,2.8537,2.8536,2.8535,2.8535,2.8535,2.8535,0,2.8597,2.8593,2.859,2.8584,2.8583,2.8582,2.8577,2.8575,2.8572,2.8569,2.8568,2.8562,2.8558,2.8553,2.8547,2.8544,2.8542,2.854,2.8544,2.8543,2.8544,2.8543,2.8547,2.8547,2.8542,2.8542,2.8542,0,2.8599,2.8598,2.8593,2.8591,2.8588,2.8586,2.8583,2.8578,2.8576,2.8571,2.857,2.8566,2.8562,2.8556,2.8551,2.8547,2.8545,2.8546,2.8544,2.8546,2.8545,2.8545,2.8544,2.8547,2.8547,2.8547,2.8547,0,2.8604,2.8602,2.8599,2.8595,2.8593,2.8589,2.8586,2.8585,2.8579,2.8576,2.8573,2.857,2.8565,2.8561,2.8556,2.8552,2.8549,2.8548,2.8548,2.8549,2.8551,2.8549,2.8545,2.8548,2.8548,2.8548,2.8548,2.8548,2.8607,2.8606,2.8602,2.8599,2.8596,2.8593,2.8591,2.8587,2.8584,2.8579,2.8577,2.8573,2.8568,2.8561,2.8558,2.8555,2.8553,2.8553,2.8553,2.8553,2.8553,2.8552,2.8554,2.8554,2.8554,2.8554,2.8554,0,2.8611,2.8608,2.8605,2.8601,2.8598,2.8596,2.8592,2.859,2.8587,2.8583,2.8579,2.8575,2.8571,2.8566,2.8561,2.856,2.8558,2.8559,2.8558,2.8558,2.8555,2.8555,2.856,2.856,2.856,2.856,2.856,2.856,2.8613,2.8611,2.8608,2.8604,2.8601,2.8598,2.8596,2.8593,2.8589,2.8585,2.8582,2.8578,2.8574,2.8569,2.8565,2.8563,2.8562,2.8563,2.8561,2.8559,2.8558,2.8557,2.8558,2.8563,2.8563,2.8564,2.8564,2.8564]}]]